Regional Weather Roundup
Issued by NWS

Home | Current Version | Previous Version | Graphics & Text | Print | Product List | Glossary Off
Versions: 1 2 3 4 5 6 7 8 9 10 11 12 13 14 15 16 17 18 19 20 21 22 23 24 25 26 27 28 29 30 31 32 33 34 35 36 37 38 39 40 41 42 43 44 45 46 47 48 49 50

000
ASUS43 KDMX 181312
RWRIA

WEATHER ROUNDUP FOR IOWA
NATIONAL WEATHER SERVICE DES MOINES IA
  ISSUED BY NWS QUAD CITIES IA IL
800 AM CDT WED OCT 18 2017

NOTE: "FAIR" INDICATES FEW OR NO CLOUDS BELOW 12,000 FEET WITH NO
SIGNIFICANT WEATHER AND/OR OBSTRUCTIONS TO VISIBILITY.

* - THESE STATIONS ARE NOT NWS STATIONS...THUS NOT UNDER NWS
QUALITY CONTROL.  THEY ALSO DO NOT REPORT WEATHER SUCH
AS PRECIPITATION OR FOG.

IAZ001>003-012>014-020>022-031>034-043>046-181400-
   NORTHWEST IOWA

CITY           SKY/WX    TMP DP  RH WIND       PRES   REMARKS
CARROLL *      CLEAR     54  50  87 SW17G24   29.91F
CHEROKEE *     SUNNY     47  46  96 S9        29.85F
DENNISON *     CLEAR     48  45  87 S9        29.93S
LE MARS *      CLEAR     50  46  87 S14       29.81F HAZE
ORANGE CITY *  CLEAR     48  46  93 S10       29.81F
SHELDON *      CLEAR     48  45  87 S9        29.79F
SIOUX CITY     CLEAR     46  45  96 SE10      29.85F
SPENCER        CLEAR     44  42  93 S6        29.84F
STORM LAKE *   CLEAR     45  43  93 S10       29.87F WCI  39
$$

IAZ055>058-069>071-079>083-090>094-181400-
   SOUTHWEST IOWA

CITY           SKY/WX    TMP DP  RH WIND       PRES   REMARKS
ATLANTIC *     CLEAR     48  46  93 S9        29.96F
AUDUBON *      CLEAR     50  45  81 S8        29.95F
CLARINDA *     CLEAR     46  45  93 S6        30.02S
COUNCIL BLFS * CLEAR     50  48  93 S10       29.93F
CRESTON *      CLEAR     48  45  87 S13       30.01S
HARLAN *       CLEAR     46  46 100 S5        29.97F
LAMONI         CLEAR     48  44  86 S8        30.04R
RED OAK *      CLEAR     48  46  93 S8        29.98S
SHENANDOAH *   CLEAR     46  45  93 SE6       29.99S
$$

IAZ047>049-059>061-072>074-084-181400-
   CENTRAL IOWA

CITY           SKY/WX    TMP DP  RH WIND       PRES   REMARKS
AMES           CLEAR     50  47  89 S9        29.96F
ANKENY *       CLEAR     52  46  82 S6        29.99F
BOONE *        CLEAR     50  46  87 S8        29.95F
CHARITON *     CLEAR     50  45  81 S12       30.02S
DES MOINES     PTCLDY    53  45  74 S12       29.98F
GRINNELL *     SUNNY     50  45  81 S8        30.03S
KNOXVILLE *    CLEAR     52  45  76 S12G17    30.01R
MARSHALLTOWN   CLEAR     51  46  83 S10       29.98S
NEWTON *       CLEAR     50  45  81 S9        30.01S
PELLA *        CLEAR     53  45  74 S9        30.03S
PERRY *        FAIR      48  47  95 S8        29.95F
$$

IAZ004>006-015-016-023>025-035-036-181400-
   NORTH CENTRAL IOWA

CITY           SKY/WX    TMP DP  RH WIND       PRES   REMARKS
ALGONA *       CLEAR     48  48 100 S14G20    29.88F
CLARION *      CLEAR     48  48 100 S15       29.92F
ESTHERVILLE    CLEAR     42  42 100 S10       29.84F WCI  36
FORT DODGE *   CLEAR     50  45  83 S7        29.92F
MASON CITY     CLEAR     47  45  93 S12       29.93F
FOREST CITY *  FAIR      46  45  93 S7        29.90F
WEBSTER CITY * CLEAR     48  45  87 S8        29.92S
IOWA FALLS *   FAIR      51  46  84 S10       29.97S
$$

IAZ007>011-017>019-026>030-037>042-050>054-066-181400-
   NORTHEAST IOWA

CITY           SKY/WX    TMP DP  RH WIND       PRES   REMARKS
CEDAR RAPIDS   CLEAR     48  44  86 S6        30.04R
CHARLES CITY * CLEAR     48  46  93 S9        29.95F
CLINTON *      CLEAR     47  42  83 S7        30.10R
DECORAH *      CLEAR     50  45  81 S8        29.95F
DUBUQUE        CLEAR     47  42  83 S13       30.04S
MONTICELLO *   CLEAR     48  43  81 S8        30.05R
OELWEIN *      CLEAR     48  46  93 S13       29.99F
WATERLOO       CLEAR     48  44  86 S9        29.97F
$$

IAZ064-065-067-068-078-181400-
   EAST CENTRAL IOWA

CITY           SKY/WX    TMP DP  RH WIND       PRES   REMARKS
DAVENPORT      CLEAR     50  41  71 S9        30.10S
IOWA CITY      CLEAR     49  43  80 S6        30.07S
MT. PLEASANT * CLEAR     49  41  72 S9        30.10R
MUSCATINE *    CLEAR     50  43  76 S7        30.09S
QUAD CITIES    CLEAR     51  40  65 S9        30.08S
$$

IAZ062-063-075>077-085>089-095>099-181400-
   SOUTHEAST IOWA

CITY           SKY/WX    TMP DP  RH WIND       PRES   REMARKS
BURLINGTON     CLEAR     49  42  77 S9        30.11R
FAIRFIELD *    CLEAR     50  43  76 S9        30.07R
FORT MADISON * CLEAR     52  45  76 S7        30.11S
KEOKUK *       CLEAR     52  43  71 S8G14     30.11R
OSKALOOSA *    FAIR      46  44  90 S8        30.05S
CENTERVILLE *  FAIR      50  45  81 CALM      30.08R
WASHINGTON *   CLEAR     48  45  87 S12       30.08S
$$

ABBREVIATIONS USED IN REMARKS
   TC - TEMPERATURES IN CELSIUS
  WCI - WIND CHILL INDEX
   HX - HEAT INDEX
  VSB - VISIBILITY
$$




USA.gov is the U.S. government's official web portal to all federal, state and local government web resources and services.